Flag for Japan Weather past 2 weeks in Okayama, Japan

Now
55 °F

Clear.


Feels Like: 55 °F
Forecast: 39 / 75 °F
Wind: 2 mph from Southwest

Location: Takamatsu

Current Time: Apr 26, 2015 at 3:51:48 AM

Latest Report: Apr 26, 2015 at 3:00 AM


Visibility: 6 mi

Pressure: 30.11 "Hg

Humidity: 62%

Dew point: 42 °F

Location of OkayamaLocation

Historic Weather in Okayama — Graph

°F

Okayama temperature yesterday

Maximum temperature yesterday: 74 °F (at 3:00 PM)
Minimum temperature yesterday: 54 °F (at 5:00 AM)
Average temperature yesterday: 65 °F

Past Weeks' High & Low Weather Summary

 TemperatureHumidityPressure
High75 °F (Apr 24, 3:00 PM)97% (Apr 11, 2:00 AM)30.38 "Hg (Apr 11, 2:00 AM)
Low46 °F (Apr 12, 5:00 AM)19% (Apr 23, 4:00 PM)29.50 "Hg (Apr 20, 1:00 PM)
Average60 °F64%29.99 "Hg
* Reported Apr 11 2:00 AM — Apr 26 2:00 AM, Okayama, Weather by CustomWeather, © 2015

Note: Actual official high and low records may vary slightly from our data, if they occured in-between our weather recording intervals... More about our weather records

Advertising

Okayama weather history for previous 24 hours

 ConditionsComfort  
Time TempWeatherWind HumidityBarometerVisibility
2:00 AM
Sun, Apr 26
56 °FCool.3 mph62%30.10 "HgN/A
1:00 AM59 °FRefreshingly cool.3 mph53%30.11 "HgN/A
12:00 AM60 °FRefreshingly cool.2 mph48%30.11 "HgN/A
11:00 PM
Sat, Apr 25
62 °FRefreshingly cool.3 mph43%30.11 "HgN/A
10:00 PM64 °FMild.6 mph33%30.11 "HgN/A
9:00 PM64 °FClear.7 mph49%30.09 "Hg9 mi
8:00 PM66 °FMild.2 mph43%30.06 "HgN/A
7:00 PM68 °FMild.5 mph30%30.04 "HgN/A
6:00 PM71 °FPassing clouds.5 mph29%30.02 "Hg9 mi
5:00 PM73 °FMild.5 mph28%30.01 "HgN/A
4:00 PM73 °FMild.3 mph25%30.01 "HgN/A
3:00 PM74 °FSunny.3 mph23%30.02 "Hg9 mi
2:00 PM71 °FMild.5 mph31%30.05 "HgN/A
1:00 PM72 °FMild.7 mph28%30.06 "HgN/A
12:00 PM70 °FSunny.8 mph27%30.07 "Hg7 mi
11:00 AM69 °FMild.9 mph30%30.09 "HgN/A
10:00 AM68 °FMild.7 mph40%30.09 "HgN/A
9:00 AM65 °FSunny.6 mph50%30.10 "Hg7 mi
8:00 AM60 °FRefreshingly cool.1 mph59%30.09 "HgN/A
7:00 AM57 °FCool.No wind67%30.10 "HgN/A
5:00 AM54 °FCool.No wind73%30.08 "HgN/A
4:00 AM56 °FCool.2 mph69%30.08 "HgN/A
3:00 AM58 °FPassing clouds.2 mph65%30.08 "Hg9 mi
Weather by CustomWeather, © 2015

See weather overviewHow to use our weather pages